Location: Joplin
(37.0842°N, 94.5131°W)
Time: 12:20:46
(UTC-05:00)

N. Korean satellite - Pass Details

Date: 25 March 2019
Orbit: 457 x 508 km, 97.2° (Epoch: 18 April)

Event Time Altitude Azimuth Distance (km) Brightness Sun altitude
Rises 06:18:11 0° 39° (NE) 2,539 11.1 -12.0°
Reaches altitude 10° 06:21:59 10° 81° (E) 1,669 10.9 -11.2°
Maximum altitude 06:22:41 10° 92° (E) 1,642 10.7 -11.1°
Drops below altitude 10° 06:23:23 10° 103° (ESE) 1,672 10.4 -10.9°
Sets 06:27:12 0° 145° (SE) 2,561 10.6 -10.2°
